This is the latest recevied weather packets stored in our database for station/object KI7MOQ. If no packets are shown the sender has not sent any weather packets the latest 10 day(s).
| Time | Temp. | Humidity | Pressure | Rain* | Wind** | Luminosity | Snow |
|---|---|---|---|---|---|---|---|
| 1777405699 | 13.33° C | 60% | 1026.3 hPa | 0 mm | - | 117 W/m² | - |
| 1777405395 | 13.33° C | 61% | 1026.2 hPa | 0 mm | - | 114 W/m² | - |
| 1777405092 | 13.33° C | 62% | 1026.4 hPa | 0 mm | - | 156 W/m² | - |
| 1777404786 | 13.33° C | 62% | 1026.3 hPa | 0 mm | - | 191 W/m² | - |
| 1777404483 | 12.78° C | 64% | 1026.3 hPa | 0 mm | - | 190 W/m² | - |
| 1777404178 | 12.78° C | 64% | 1026.4 hPa | 0 mm | - | 167 W/m² | - |
| 1777403874 | 13.33° C | 63% | 1026.3 hPa | 0 mm | - | 113 W/m² | - |
| 1777403569 | 13.33° C | 63% | 1026.5 hPa | 0 mm | - | 133 W/m² | - |
| 1777403269 | 12.78° C | 64% | 1026.3 hPa | 0 mm | - | 169 W/m² | - |
| 1777402969 | 12.78° C | 64% | 1026.5 hPa | 0 mm | - | 139 W/m² | - |
| 1777402665 | 12.78° C | 63% | 1026.5 hPa | 0 mm | - | 131 W/m² | - |
| 1777402364 | 12.22° C | 67% | 1026.6 hPa | 0 mm | - | 168 W/m² | - |
| 1777402062 | 12.22° C | 68% | 1026.5 hPa | 0 mm | - | 119 W/m² | - |
| 1777401758 | 12.22° C | 68% | 1026.5 hPa | 0 mm | - | 94 W/m² | - |
| 1777401453 | 11.67° C | 68% | 1026.6 hPa | 0 mm | - | 91 W/m² | - |
| 1777401149 | 11.67° C | 68% | 1026.4 hPa | 0 mm | - | 77 W/m² | - |
| 1777400845 | 11.67° C | 69% | 1026.7 hPa | 0 mm | - | 96 W/m² | - |
| 1777400541 | 12.22° C | 70% | 1026.5 hPa | 0 mm | - | 111 W/m² | - |
| 1777400239 | 11.67° C | 70% | 1026.4 hPa | 0 mm | - | 123 W/m² | - |
| 1777399935 | 11.67° C | 71% | 1026.3 hPa | 0 mm | - | 148 W/m² | - |
| 1777399632 | 11.67° C | 72% | 1026.4 hPa | 0 mm | - | 110 W/m² | - |
| 1777399329 | 11.11° C | 72% | 1026.2 hPa | 0 mm | - | 88 W/m² | - |
| 1777399027 | 11.11° C | 73% | 1026.3 hPa | 0 mm | - | 78 W/m² | - |
| 1777398724 | 11.11° C | 72% | 1026.3 hPa | 0 mm | - | 86 W/m² | - |
| 1777398420 | 11.11° C | 74% | 1026.3 hPa | 0 mm | - | 88 W/m² | - |
* Rain latest hour (hover to see other rain measurements)
** Current wind speed in m/s (hover to see current wind gust speed)